sat.trackr.live / text

‹ back to catalog

NEE-02 KRYSAOR

NORAD 39441 · 2013-066AB

PAYLOAD ACTIVE UNKNOWN

§ Identity

Operator
Country
ECU
Launch date
2013-11-21
Launch site
DLS
Launch vehicle
Mass (kg)
RCS (m²)
0.01

Purposes: tech_demo

External: N2YO · Heavens-Above · Gunter

§ Orbital elements

Epoch: 2026-09-19T07:04:43.176288Z

Period
96.84 min
Inclination
97.8943°
Eccentricity
0.0066945
Mean motion
14.86916825 rev/d
Perigee alt
560.8 km
Apogee alt
654.3 km
Semi-major
6,985.7 km
B*
1.3340e-4
RAAN
200.8808°
Arg perigee
120.2607°
Mean anomaly
240.5258°
Rev number
69,018

§ Raw data

NEE-02 KRYSAOR1 39441U 13066AB  26262.29494417  .00001183  00000+0  13340-3 0  99912 39441  97.8943 200.8808 0066945 120.2607 240.5258 14.86916825690187

JSON: /api/v1/satellites/39441 · /tle

For live sub-satellite position, see the globe view (requires WebGL).

§ Visibility from observer

Set your observer location to see the next 7 days of passes ≥ 10°. The values pass through the URL so the page stays shareable.

No JS? Fill the form by hand. The geolocation button needs JavaScript.

§ Radio — SatNOGS DB

ModeDescriptionDownlinkUplink
FM Downlink 980.000 MHz

1 transmitter · refreshed weekly from db.satnogs.org